EW3139 Weather Reports


Display with metric or nautical units.
time (UTC)temp
F
wind
direction
speed
MPH
gust
MPH
rain 1hr
in
rain 24hr
in
rain mn
in
humidity
%
barometer
mb
20260906082503 52 352 3.0 10.0 0.00 0.02 0.01 65 1007.0
20260906082005 51 346 3.0 10.0 0.00 0.02 0.01 68 1007.0
20260906081505 51 347 3.0 10.0 0.00 0.02 0.01 68 1007.0
20260906081005 51 332 3.0 10.0 0.00 0.02 0.01 68 1006.9
20260906080504 51 338 4.0 11.0 0.00 0.02 0.01 68 1006.9
20260906080005 51 352 3.0 11.0 0.00 0.02 0.01 68 1006.9
20260906075504 50 357 3.0 10.0 0.00 0.02 0.01 69 1006.9
20260906075006 50 339 3.0 9.0 0.00 0.02 0.01 72 1006.7
20260906074505 50 322 3.0 9.0 0.00 0.02 0.01 72 1006.6
20260906074004 49 332 2.0 9.0 0.00 0.02 0.01 74 1006.5
20260906073503 49 342 2.0 9.0 0.00 0.02 0.01 76 1006.6
20260906072504 48 326 3.0 15.0 0.00 0.02 0.01 75 1006.5
20260906072005 49 313 3.0 15.0 0.00 0.02 0.01 75 1006.4
20260906071503 49 318 3.0 10.0 0.00 0.02 0.01 75 1006.4
20260906071005 50 338 3.0 10.0 0.00 0.02 0.01 74 1006.3
20260906070504 49 350 3.0 10.0 0.00 0.02 0.01 75 1006.2
20260906070004 49 359 3.0 11.0 0.00 0.02 0.01 75 1006.2
20260906065505 49 356 3.0 11.0 0.00 0.02 0.01 76 1006.2
20260906065003 49 342 2.0 12.0 0.00 0.02 0.01 78 1006.1
20260906064505 49 341 2.0 12.0 0.00 0.02 0.01 79 1006.0
20260906063505 48 329 2.0 8.0 0.00 0.02 0.01 81 1005.9
20260906062505 47 342 2.0 8.0 0.00 0.02 0.01 82 1005.7
20260906062004 47 329 1.0 6.0 0.00 0.02 0.01 83 1005.6
20260906061505 47 328 1.0 6.0 0.00 0.02 0.01 83 1005.6
20260906061003 47 301 1.0 5.0 0.00 0.02 0.01 84 1005.6
20260906055503 47 314 1.0 3.0 0.00 0.02 0.01 87 1005.4
20260906055005 47 336 1.0 3.0 0.00 0.02 0.01 86 1005.4
20260906054005 46 328 1.0 3.0 0.00 0.02 0.01 87 1005.2
20260906053503 46 334 1.0 3.0 0.00 0.02 0.01 88 1005.2
20260906053005 46 345 1.0 4.0 0.00 0.03 0.01 88 1005.1
20260906052504 46 316 1.0 6.0 0.00 0.03 0.01 89 1005.1
20260906052005 46 309 1.0 6.0 0.00 0.03 0.01 89 1005.0
20260906051005 45 328 0.0 3.0 0.00 0.03 0.01 91 1004.9
20260906050503 45 306 1.0 5.0 0.00 0.03 0.01 91 1004.9
20260906050005 45 304 1.0 5.0 0.00 0.03 0.01 91 1004.8
20260906045504 45 10 0.0 3.0 0.00 0.03 0.01 91 1004.8
20260906045003 44 342 0.0 3.0 0.00 0.03 0.01 91 1004.8
20260906044505 44 320 0.0 3.0 0.00 0.03 0.01 91 1004.7
20260906044003 44 322 0.0 3.0 0.00 0.03 0.01 91 1004.7
20260906043504 45 332 0.0 3.0 0.00 0.03 0.01 91 1004.5
20260906043005 45 319 0.0 3.0 0.00 0.03 0.01 91 1004.5
20260906041003 45 294 0.0 2.0 0.01 0.03 0.01 92 1004.2
20260906040505 45 298 1.0 6.0 0.01 0.03 0.01 93 1004.2
20260906040004 45 324 1.0 6.0 0.01 0.03 0.01 93 1004.1
20260906035505 44 308 1.0 3.0 0.01 0.03 0.01 94 1004.2
20260906034505 44 284 1.0 6.0 0.01 0.03 0.01 94 1004.0
20260906033503 44 288 0.0 2.0 0.01 0.03 0.01 95 1004.0
20260906033005 44 293 0.0 3.0 0.01 0.03 0.01 95 1003.9
20260906032503 44 317 0.0 3.0 0.01 0.03 0.01 95 1003.9
20260906032003 44 332 0.0 2.0 0.01 0.03 0.01 95 1003.9
20260906031505 44 333 0.0 2.0 0.00 0.02 0.00 95 1003.8
20260906031004 44 333 0.0 1.0 0.00 0.02 0.00 95 1003.8
20260906030503 44 282 1.0 3.0 0.00 0.02 0.00 95 1003.8
20260906030005 44 283 1.0 3.0 0.00 0.02 0.00 95 1003.7
20260906025503 44 290 0.0 4.0 0.00 0.02 0.00 95 1003.7
20260906025004 44 284 0.0 4.0 0.00 0.02 0.00 95 1003.6
20260906024004 44 298 0.0 3.0 0.00 0.02 0.00 95 1003.5
20260906023005 44 277 0.0 3.0 0.00 0.02 0.00 95 1003.5
20260906022504 44 271 0.0 3.0 0.00 0.02 0.00 95 1003.4
20260906022004 45 270 0.0 3.0 0.00 0.02 0.00 95 1003.5
20260906021505 45 271 0.0 3.0 0.00 0.02 0.00 95 1003.5
20260906021004 45 270 0.0 2.0 0.00 0.02 0.00 95 1003.3
20260906020503 45 293 0.0 2.0 0.00 0.02 0.00 95 1003.4
20260906015503 45 297 0.0 3.0 0.00 0.02 0.00 96 1003.4
20260906015004 45 291 0.0 3.0 0.00 0.02 0.00 96 1003.3
20260906014505 46 293 0.0 3.0 0.00 0.02 0.00 96 1003.2
20260906014003 46 302 0.0 2.0 0.00 0.02 0.00 96 1003.2
20260906013504 46 330 0.0 2.0 0.00 0.02 0.00 96 1003.1
20260906013005 45 309 0.0 3.0 0.00 0.02 0.00 96 1003.1
20260906012504 45 279 0.0 3.0 0.00 0.02 0.00 96 1003.0
20260906012005 45 0 0.0 0.0 0.00 0.02 0.00 95 1002.9
20260906011504 45 279 0.0 1.0 0.00 0.02 0.00 96 1002.9
20260906011005 46 279 0.0 3.0 0.00 0.02 0.00 96 1002.8
20260906010503 46 274 0.0 3.0 0.00 0.02 0.00 96 1002.8
20260906005006 46 268 0.0 4.0 0.00 0.02 0.00 96 1002.7
20260906004005 45 302 0.0 4.0 0.00 0.02 0.00 96 1002.6
20260906003005 45 302 0.0 2.0 0.00 0.02 0.00 95 1002.6
20260906002503 45 303 0.0 2.0 0.00 0.02 0.00 95 1002.6
20260906002005 45 302 0.0 2.0 0.00 0.02 0.00 95 1002.5
20260906001005 45 303 0.0 2.0 0.00 0.02 0.00 95 1002.5
20260906000503 46 304 0.0 2.0 0.00 0.02 0.00 95 1002.5
20260906000005 46 304 0.0 2.0 0.00 0.02 0.00 95 1002.4
20260905235504 46 0 0.0 0.0 0.00 0.02 0.00 94 1002.5
20260905235003 46 0 0.0 0.0 0.00 0.02 0.00 95 1002.4
20260905234505 46 278 0.0 2.0 0.00 0.02 0.00 95 1002.5
20260905234003 46 278 0.0 4.0 0.00 0.02 0.00 95 1002.5
20260905233505 47 278 1.0 4.0 0.00 0.02 0.00 95 1002.4
20260905233004 47 278 0.0 2.0 0.00 0.02 0.00 95 1002.3
20260905232505 47 278 0.0 1.0 0.00 0.02 0.00 95 1002.3
20260905232003 47 277 0.0 2.0 0.00 0.02 0.00 95 1002.3
20260905231505 47 275 0.0 3.0 0.00 0.02 0.00 95 1002.3
20260905231004 47 263 0.0 3.0 0.00 0.02 0.00 95 1002.3
20260905230507 47 247 1.0 3.0 0.00 0.02 0.00 95 1002.3
20260905230004 47 251 1.0 3.0 0.00 0.02 0.00 95 1002.2
20260905225505 47 5 0.0 2.0 0.00 0.02 0.00 95 1002.2
20260905225004 47 13 0.0 2.0 0.00 0.02 0.00 95 1002.2
20260905224005 47 13 0.0 2.0 0.00 0.02 0.00 95 1002.1
20260905223503 47 11 0.0 2.0 0.00 0.02 0.00 95 1002.1
20260905221505 47 307 1.0 7.0 0.00 0.02 0.00 95 1002.0
20260905220505 48 342 0.0 2.0 0.00 0.02 0.00 94 1001.9
20260905220004 48 337 0.0 3.0 0.00 0.02 0.00 94 1001.9
20260905215505 48 321 1.0 3.0 0.00 0.02 0.00 94 1001.9
20260905215004 48 341 1.0 5.0 0.00 0.02 0.00 94 1001.9
20260905214003 48 1 1.0 4.0 0.00 0.02 0.00 94 1001.8
20260905213503 48 353 1.0 5.0 0.00 0.02 0.00 94 1001.8
20260905212504 48 3 1.0 4.0 0.00 0.02 0.00 93 1001.7
20260905211505 48 354 1.0 7.0 0.00 0.02 0.00 93 1001.6
20260905211004 48 342 1.0 4.0 0.00 0.02 0.00 93 1001.5
20260905210505 48 340 1.0 4.0 0.00 0.02 0.00 93 1001.4
20260905205505 48 356 1.0 4.0 0.00 0.02 0.02 92 1001.4
20260905205004 48 339 1.0 10.0 0.00 0.02 0.02 93 1001.3
20260905204505 48 328 1.0 10.0 0.00 0.02 0.02 93 1001.2
20260905204004 48 331 1.0 4.0 0.00 0.02 0.02 93 1001.3
20260905203505 48 356 0.0 4.0 0.00 0.02 0.02 93 1001.2
20260905203003 48 356 1.0 4.0 0.00 0.02 0.02 93 1001.1
20260905202505 48 345 1.0 4.0 0.00 0.02 0.02 93 1001.1
20260905201505 48 332 1.0 4.0 0.00 0.02 0.02 93 1001.0
20260905201003 48 336 0.0 3.0 0.00 0.02 0.02 93 1001.0
20260905200505 48 307 0.0 2.0 0.00 0.02 0.02 92 1001.0
20260905200004 48 299 0.0 2.0 0.00 0.02 0.02 92 1000.9
20260905195505 48 297 0.0 2.0 0.00 0.02 0.02 92 1000.9
20260905194505 48 338 0.0 3.0 0.00 0.02 0.02 92 1000.8
20260905194004 48 331 1.0 4.0 0.00 0.02 0.02 92 1000.7
20260905193506 48 339 1.0 4.0 0.00 0.02 0.02 91 1000.7
20260905193004 48 349 0.0 2.0 0.00 0.02 0.02 92 1000.6
20260905192505 48 323 0.0 2.0 0.00 0.02 0.02 91 1000.6
20260905192003 48 335 0.0 2.0 0.00 0.02 0.02 91 1000.6
20260905191505 48 6 1.0 3.0 0.00 0.02 0.02 92 1000.5
20260905191004 48 17 1.0 3.0 0.00 0.02 0.02 92 1000.5
20260905190505 48 9 1.0 3.0 0.00 0.02 0.02 92 1000.5
20260905190004 48 3 0.0 3.0 0.00 0.02 0.02 92 1000.5
20260905185505 48 6 1.0 7.0 0.00 0.02 0.02 91 1000.3
20260905184005 48 1 1.0 7.0 0.00 0.02 0.02 91 1000.3
20260905183504 48 9 1.0 7.0 0.00 0.02 0.02 91 1000.3
20260905183005 48 7 1.0 5.0 0.00 0.02 0.02 91 1000.2
20260905182504 48 9 2.0 7.0 0.00 0.02 0.02 91 1000.2
20260905181504 48 346 1.0 4.0 0.00 0.02 0.02 91 1000.1
20260905181005 49 3 1.0 4.0 0.00 0.02 0.02 91 1000.1
20260905180504 49 5 1.0 5.0 0.00 0.02 0.02 91 1000.0
20260905180005 49 356 1.0 5.0 0.00 0.02 0.02 91 1000.0
20260905175504 49 12 0.0 4.0 0.00 0.02 0.02 91 1000.0
20260905175006 49 25 0.0 3.0 0.00 0.02 0.02 91 1000.0
20260905174504 49 22 1.0 5.0 0.00 0.02 0.02 90 999.9
20260905174005 49 12 1.0 5.0 0.00 0.02 0.02 90 999.8
20260905173503 49 9 1.0 5.0 0.00 0.02 0.02 89 999.7
20260905173004 49 8 1.0 4.0 0.00 0.02 0.02 89 999.7
20260905172505 49 10 0.0 3.0 0.00 0.02 0.02 89 999.7
20260905172004 49 23 1.0 3.0 0.00 0.02 0.02 89 999.6
20260905171505 49 27 1.0 5.0 0.00 0.02 0.02 89 999.5
20260905170505 49 13 2.0 11.0 0.00 0.02 0.02 88 999.5
20260905170004 50 11 2.0 11.0 0.00 0.02 0.02 87 999.3
20260905165505 50 14 2.0 8.0 0.00 0.02 0.02 87 999.3
20260905165004 50 12 2.0 12.0 0.00 0.02 0.02 86 999.2
20260905164505 50 7 3.0 13.0 0.00 0.02 0.02 86 999.2
20260905164004 50 9 3.0 13.0 0.00 0.02 0.02 86 999.2
20260905163505 51 9 2.0 8.0 0.00 0.02 0.02 87 999.1
20260905162505 51 356 2.0 8.0 0.00 0.02 0.02 86 999.0
20260905162004 51 359 3.0 8.0 0.00 0.02 0.02 86 998.9
20260905161505 51 354 2.0 8.0 0.00 0.02 0.02 85 998.9
20260905161004 51 351 2.0 10.0 0.00 0.02 0.02 85 998.8
20260905160005 52 355 2.0 8.0 0.00 0.02 0.02 84 998.7
20260905155504 52 10 3.0 9.0 0.00 0.02 0.02 83 998.6
20260905155005 52 6 3.0 10.0 0.00 0.02 0.02 82 998.6
20260905154504 52 1 3.0 14.0 0.00 0.02 0.02 81 998.5
20260905154006 53 5 4.0 14.0 0.00 0.02 0.02 81 998.4
20260905153005 54 14 4.0 12.0 0.00 0.02 0.02 78 998.2
20260905152504 54 9 4.0 12.0 0.00 0.02 0.02 78 998.2
20260905152005 54 7 4.0 12.0 0.00 0.02 0.02 79 998.2
20260905151504 54 10 3.0 10.0 0.00 0.02 0.02 80 998.2
20260905151005 53 3 2.0 8.0 0.00 0.02 0.02 83 998.1
20260905150504 53 5 2.0 9.0 0.00 0.02 0.02 86 998.0
20260905150005 52 8 3.0 9.0 0.00 0.02 0.02 86 998.0
20260905145504 52 9 2.0 9.0 0.00 0.02 0.02 85 998.0
20260905145005 53 16 2.0 8.0 0.00 0.02 0.02 85 997.9
20260905144504 53 17 2.0 7.0 0.00 0.02 0.02 85 997.8
20260905144005 53 12 4.0 12.0 0.00 0.02 0.02 85 997.8
20260905143504 53 6 4.0 12.0 0.00 0.02 0.02 85 997.7
20260905143005 54 353 3.0 10.0 0.00 0.02 0.02 84 997.7
20260905142504 54 340 2.0 9.0 0.00 0.02 0.02 84 997.5
20260905142005 54 327 3.0 10.0 0.00 0.02 0.02 84 997.5
20260905141505 54 333 2.0 10.0 0.00 0.02 0.02 84 997.5
20260905141004 54 351 2.0 12.0 0.00 0.02 0.02 84 997.4
20260905140505 53 352 3.0 12.0 0.00 0.02 0.02 84 997.3
20260905140004 54 5 3.0 10.0 0.00 0.02 0.02 83 997.3
20260905135004 54 358 3.0 11.0 0.00 0.02 0.02 82 997.1
20260905134505 54 357 3.0 11.0 0.00 0.02 0.02 82 997.1
20260905134004 54 5 3.0 11.0 0.00 0.02 0.02 83 997.0
20260905133505 54 8 2.0 10.0 0.00 0.02 0.02 83 997.0
20260905133004 54 1 2.0 11.0 0.00 0.02 0.02 83 997.0
20260905132505 54 359 3.0 11.0 0.00 0.02 0.02 83 996.9
20260905132004 54 4 3.0 7.0 0.00 0.02 0.02 85 996.9
20260905131505 54 2 3.0 10.0 0.00 0.02 0.02 86 996.8
20260905131004 54 350 2.0 10.0 0.00 0.02 0.02 87 996.8
20260905130505 54 350 2.0 9.0 0.00 0.02 0.02 87 996.7
20260905130004 54 6 2.0 9.0 0.00 0.02 0.02 86 996.7
20260905125505 55 1 3.0 12.0 0.00 0.02 0.02 85 996.6
20260905125004 56 358 3.0 12.0 0.00 0.02 0.02 82 996.6
20260905124004 56 5 3.0 11.0 0.00 0.02 0.02 81 996.3
20260905123505 56 4 3.0 11.0 0.00 0.02 0.02 82 996.3
20260905123004 56 339 2.0 10.0 0.00 0.02 0.02 82 996.3
20260905122505 56 343 2.0 10.0 0.00 0.02 0.02 83 996.2
20260905122004 56 3 3.0 9.0 0.00 0.02 0.02 83 996.2
20260905121505 56 1 3.0 8.0 0.00 0.02 0.02 83 996.1
20260905121004 56 356 2.0 8.0 0.00 0.02 0.02 83 996.0
20260905120505 56 334 2.0 10.0 0.00 0.02 0.02 83 995.9
20260905120004 57 307 2.0 10.0 0.00 0.02 0.02 81 995.8
20260905115505 58 328 2.0 7.0 0.00 0.02 0.02 78 995.8
20260905115004 57 4 3.0 11.0 0.00 0.02 0.02 80 995.7
20260905114504 57 3 3.0 11.0 0.00 0.02 0.02 79 995.7
20260905114005 56 350 3.0 9.0 0.00 0.02 0.02 80 995.7
20260905113504 57 359 4.0 12.0 0.00 0.02 0.02 80 995.7
20260905113005 57 2 4.0 12.0 0.00 0.02 0.02 79 995.7
20260905112504 58 347 3.0 10.0 0.00 0.02 0.02 80 995.6
20260905112005 57 324 2.0 9.0 0.00 0.02 0.02 83 995.4
20260905111504 57 328 2.0 9.0 0.00 0.02 0.02 82 995.4
20260905111005 57 12 1.0 4.0 0.00 0.02 0.02 83 995.3
20260905110504 57 4 3.0 10.0 0.00 0.02 0.02 84 995.2
20260905110005 57 353 3.0 10.0 0.00 0.02 0.02 84 995.3
20260905105504 56 353 3.0 9.0 0.00 0.02 0.02 86 995.3
20260905105007 56 7 3.0 11.0 0.00 0.02 0.02 87 995.3
20260905104504 55 8 4.0 11.0 0.00 0.02 0.02 85 995.3
20260905103504 56 9 4.0 11.0 0.00 0.02 0.02 87 995.1
20260905102004 56 3 3.0 10.0 0.00 0.02 0.02 87 995.0
20260905101505 57 2 3.0 14.0 0.00 0.02 0.02 87 995.0
20260905101004 57 10 3.0 14.0 0.00 0.02 0.02 89 994.9
20260905100004 56 3 5.0 18.0 0.00 0.02 0.02 89 994.7
20260905095505 56 356 3.0 18.0 0.00 0.02 0.02 91 994.6
20260905095004 56 346 2.0 5.0 0.00 0.02 0.02 93 994.6
20260905094505 55 354 3.0 9.0 0.00 0.02 0.02 93 994.5
20260905094004 55 7 2.0 9.0 0.00 0.02 0.02 93 994.5
20260905093505 55 3 2.0 5.0 0.00 0.02 0.02 94 994.5
20260905093004 54 337 1.0 6.0 0.01 0.02 0.02 93 994.4
20260905092505 54 331 1.0 6.0 0.02 0.02 0.02 93 994.4
20260905092004 55 328 2.0 9.0 0.02 0.02 0.02 93 994.3
20260905091505 55 343 3.0 13.0 0.02 0.02 0.02 93 994.3
20260905091004 55 5 2.0 13.0 0.02 0.02 0.02 95 994.2
20260905090506 54 3 2.0 9.0 0.02 0.02 0.02 95 994.2
20260905090004 54 10 2.0 10.0 0.02 0.02 0.02 95 994.2
20260905084505 54 336 2.0 7.0 0.02 0.02 0.02 95 994.1
20260905084004 54 345 1.0 5.0 0.02 0.02 0.02 95 994.1
20260905083505 54 343 1.0 5.0 0.02 0.02 0.02 95 994.1
20260905083004 54 350 1.0 3.0 0.01 0.02 0.02 95 994.0